2024-125D

Last updated on Sun Aug 04 2024 00:02:04 GMT+0000 (Coordinated Universal Time)

1 60206U 24125D 24216.55946538 .00010635 00000+0 48592-3 0 9993 2 60206 97.3193 68.5635 0027843 146.4974 213.8030 15.20394645 4617
UTC large
Height (km)
Speed (km/s)
/
Latitude / Longitude
Inclination (degrees)
Orbital Period (minutes)
Azimuth
Elevation
Range (km)
Doppler Factor

Next 0 passes for location: London (51.5072 / 0.1276)

Sorry there are no passes over London.